Regional Weather Roundup
Issued by NWS Cleveland, OH

Home | Current Version | Previous Version | Graphics & Text | Print | Product List | Glossary On
Versions: 1 2 3 4 5 6 7 8 9 10 11 12 13 14 15 16 17 18 19 20 21 22 23 24 25 26 27 28 29 30 31 32 33 34 35 36 37 38 39 40 41 42 43 44 45 46 47 48 49 50
446
ASUS41 KCLE 301710
RWRCLE
OHIO REGIONAL WEATHER ROUNDUP
NATIONAL WEATHER SERVICE WILMINGTON, OH
100 PM EDT SAT JUL 30 2016

NOTE: "FAIR" INDICATES FEW OR NO CLOUDS BELOW 12,000 FEET WITH NO
SIGNIFICANT WEATHER AND/OR OBSTRUCTIONS TO VISIBILITY.

OHZ001>008-015>018-024>027-034-035-043-044-301800-
   NORTHWEST OHIO

CITY           SKY/WX    TMP DP  RH WIND       PRES   REMARKS
DEFIANCE       PTSUNNY   78  68  71 NW6       29.97F
FINDLAY        PTSUNNY   81  67  62 W10       29.95S
TOLEDO EXPRESS CLOUDY    76  70  82 N12       29.95S
TOLEDO EXEC    TSTM      73  70  90 NE10      29.97R FOG
LIMA           CLOUDY    76  70  82 W7        29.98S
$$

OHZ009>014-019>023-028>033-038-089-301800-
   NORTHEAST OHIO

CITY           SKY/WX    TMP DP  RH WIND       PRES   REMARKS
CLE-HOPKINS    LGT RAIN  78  70  76 N12       29.96F
CLE-LAKEFRONT  FAIR      80  71  74 NE16      29.93F
CUY CO. ARPT   LGT RAIN  79  73  83 N7        29.96S
LORAIN-ELYRIA  LGT RAIN  76  69  79 NE8       29.96S
ASHTABULA      CLOUDY    76  70  82 S7        29.99S
AKRON-CANTON   PTSUNNY   80  68  66 SE5       29.97F
WOOSTER        FAIR      81  68  64 CALM      29.96F
MANSFIELD      FAIR      81  68  64 CALM      29.97S
YOUNGSTOWN     PTSUNNY   77  69  76 E7        29.99S
$$

OHZ042-051>053-060>062-070>072-077>081-301800-
  SOUTHWEST OHIO

CITY           SKY/WX    TMP DP  RH WIND       PRES   REMARKS
CINC-COVINGTON PTSUNNY   83  70  64 W9        29.99F
CINC-LUNKEN    PTSUNNY   80  70  71 VRB3      29.98F
HAMILTON       PTSUNNY   82  69  64 NW6       29.99S
DAYTON         PTSUNNY   81  68  64 W10       29.99S
WRIGHT-PAT AFB MOSUNNY   81  70  68 W6        29.97F
DAYTON GENERAL PTSUNNY   82  67  60 W8        29.98S
WILMINGTON     FAIR      81  70  69 W9        29.99S
$$

OHZ036-037-039>041-045>050-054>059-063>069-073>076-082>088-301800-
  CENTRAL AND SOUTHEAST OHIO

CITY           SKY/WX    TMP DP  RH WIND       PRES   REMARKS
COLUMBUS       PTSUNNY   80  69  69 S7        29.96S
OSU AIRPORT    PTSUNNY   82  71  69 SW9       29.96F
BOLTON FIELD   PTSUNNY   79  72  78 SW6         N/A
RICKENBACK AFB PTSUNNY   79  70  73 SW6       29.97S
NEWARK         PTSUNNY   81  70  69 CALM      29.96F
MARION         PTSUNNY   83  67  58 W6        29.96F
LANCASTER      PTSUNNY   80  71  74 SW9       29.98S
ZANESVILLE     PTSUNNY   83  69  62 W6        29.97F
NEW PHILLY     FAIR      84  69  60 CALM      29.97F
$$




USA.gov is the U.S. government's official web portal to all federal, state and local government web resources and services.